Regional Weather Roundup
Issued by NWS Northern Indiana

Home | Current Version | Previous Version | Graphics & Text | Print | Product List | Glossary On
Versions: 1 2 3 4 5 6 7 8 9 10 11 12 13 14 15 16 17 18 19 20 21 22 23 24 25 26 27 28 29 30 31 32 33 34 35 36 37 38 39 40 41 42 43 44 45 46 47 48 49 50
000
ASUS43 KIWX 031300
RWRIWX

KIWX WEATHER ROUNDUP
NATIONAL WEATHER SERVICE NORTHERN INDIANA
900 AM EDT THU SEP 03 2015

NOTE: "FAIR" INDICATES FEW OR NO CLOUDS BELOW 12,000 FEET WITH NO
SIGNIFICANT WEATHER AND/OR OBSTRUCTIONS TO VISIBILITY.

* THESE STATIONS ARE NOT UNDER NWS QUALITY CONTROL. THEY ALSO MAY NOT
  REPORT WEATHER SUCH AS PRECIPITATION OR FOG.

INZ001>027-031400-
NORTHERN INDIANA

CITY           SKY/WX    TMP DP  RH WIND       PRES   REMARKS
GARY*          SUNNY     75  66  73 S5        29.98S
KNOX*          SUNNY     72  70  94 SW6       29.98F
SOUTH BEND     SUNNY     74  68  81 SW6       29.99S
ELKHART*       SUNNY     73  70  88 SW3       30.00R
GOSHEN         SUNNY     74  69  85 SW6       30.00R
MONTICELLO*    SUNNY     72  71  95 S6        30.00S
ANGOLA*        SUNNY     75  66  73 SW3       30.00S
FORT WAYNE     MOSUNNY   74  69  85 SW8       30.02S
PERU/GRISSOM   SUNNY     74  69  83 SW7       30.01F

$$
INZ028>050-031400-
CENTRAL INDIANA

CITY           SKY/WX    TMP DP  RH WIND       PRES   REMARKS
LAFAYETTE      SUNNY     72  68  87 CALM      30.01F
KOKOMO*        SUNNY     75  66  73 SW6       30.03S
MUNCIE*        SUNNY     73  68  84 SW7       30.04S
INDIANAPOLIS   SUNNY     73  68  84 W6        30.04S FOG

$$
MIZ043>046-050>051-056>058-064>065-071>073-077>080-031400-
SOUTHWEST LOWER MICHIGAN

CITY           SKY/WX    TMP DP  RH WIND       PRES   REMARKS
BATTLE CREEK   MOSUNNY   74  69  85 S8        29.97F
BENTON HARBOR  SUNNY     75  69  81 S6        29.96S
COLDWATER*     SUNNY     74  70  88 SW6       29.99S
HILLSDALE*     MOSUNNY   76  72  89 SW3       30.01R
HOLLAND        PTSUNNY   77  71  82 SW6       29.95R
GRAND RAPIDS   PTSUNNY   76  71  85 SW7       29.95S
KALAMAZOO      MOSUNNY   74  69  85 SW9       29.97F
STURGIS*       MOSUNNY   72  70  94 SW5       29.99S FOG
THREE RIVERS*  FAIR      72  70  94 CALM      29.98F FOG

$$
OHZ001>008-015>018-024>025-031400-
NORTHWEST OHIO

CITY           SKY/WX    TMP DP  RH WIND       PRES   REMARKS
DEFIANCE       MOSUNNY   71  67  87 SE3       30.01S FOG
FINDLAY        SUNNY     75  69  81 CALM      30.01R
TOLEDO EXPRESS MOSUNNY   75  68  78 SW9       29.99S
TOLEDO METCALF SUNNY     73  67  81 SW7       30.00S
LIMA           MOSUNNY   74  69  85 SW6       30.03S

$$
AND FOR LAKE MICHIGAN COASTAL AND OPEN LAKE BUOY OBSERVATIONS

STATION/POSITION TEMP    WIND        PRES    VSBY  WAVE
                 AIR SEA DIR/SP/G                  HT/PER
                 (F)     (DEG/KT/KT) (MB)    (MI)  (FT/S)
CALUMET HARBOR    74     200/  6/  8   N/A
MICHIGAN CITY     74     180/ 10/ 11   N/A
BURNS HARBOR      74     190/  8/ 10 1015.2S
SAINT JOSEPH      76     180/  7/ 11 1014.9S
SOUTH LAKE BUOY   73 71  220/ 12/ 14 1012.5F         1
4 MI NW BRIDGMAN  75 73  250/  8/ 10   N/A           1/ 2
MICHIGAN CITY     74 73  220/  8/ 10   N/A           1/ 2

$$
&&


USA.gov is the U.S. government's official web portal to all federal, state and local government web resources and services.